Regional Weather Roundup
Issued by NWS

Home | Current Version | Previous Version | Text Only | Print | Product List | Glossary On
Versions: 1 2 3 4 5 6 7 8 9 10 11 12 13 14 15 16 17 18 19 20 21 22 23 24 25 26 27 28 29 30 31 32 33 34 35 36 37 38 39 40 41 42 43 44 45 46 47 48 49 50
000
ASCA42 TJSJ 190610
RWRPR
PUERTO RICO/U.S. VIRGIN ISLANDS HOURLY WEATHER ROUNDUP
NATIONAL WEATHER SERVICE SAN JUAN PR
200 AM AST THU OCT 19 2017

PRZ001>002-007>008-010-190700-
PUERTO RICO

CITY           SKY/WX    TMP DP  RH WIND       PRES   REMARKS
SAN JUAN LMM   PTCLDY    81  79  94 E10       29.99F
PONCE          MOCLDY    79  70  73 VRB2      29.98F FOG
AGUADILLA      CLEAR     77  73  88 SE3       30.02S FOG
$$

VIZ001>002-190700-
U.S. VIRGIN ISLANDS

CITY           SKY/WX    TMP DP  RH WIND       PRES   REMARKS
CHARLOTTE AMA    N/A     82  75  78 E17       29.99F
$$

HOURLY WEATHER ROUNDUP FOR THE NEWS MEDIA

CITY           SKY/WX    TMP DP  RH WIND       PRES   REMARKS
NEW YORK       CLEAR     55  51  86 SW6       30.28F
NEWARK         CLEAR     55  46  71 SW7       30.27F
CHICAGO        CLEAR     60  44  55 SW13      30.02F
HARTFORD       FOG       46  46 100 CALM      30.26F VSB 1/2
BOSTON         CLEAR     53  47  79 SW9       30.25S
DALLAS         MOCLDY    67  47  48 S12       30.11S
PHILADELPHIA   PTCLDY    56  47  71 SW8       30.30S
LOS ANGELES    CLEAR     68  59  73 S5        29.91S
WASHINGTON DC  PTCLDY    45  43  93 SE5       30.29F


USA.gov is the U.S. government's official web portal to all federal, state and local government web resources and services.